[Date Prev][Date Next][Thread Prev][Thread Next] - [Date Index][Thread Index][Author Index]

2 Line ISS Keps 9-24



ISS
1 25544U 98067A   06266.97835648  .00015204  00000-0  99058-4 0  7298
2 25544 051.6361 038.5538 0012032 019.6945 124.9648 15.76066279448748
----
Sent via sarex@amsat.org. Opinions expressed are those of the author.
Not an AMSAT member? Join now to support the amateur satellite program!
Subscription settings: http://amsat.org/mailman/listinfo/sarex



AMSAT Top AMSAT Home